Regional Weather Roundup
Issued by NWS

Home | Current Version | Previous Version | Graphics & Text | Print | Product List | Glossary On
Versions: 1 2 3 4 5 6 7 8 9 10 11 12 13 14 15 16 17 18 19 20 21 22 23 24 25 26 27 28 29 30 31 32 33 34 35 36 37 38 39 40 41 42 43 44 45 46 47 48 49 50
000
ASUS43 KOAX 262210
RWRNE

WEATHER ROUNDUP FOR NEBRASKA
NATIONAL WEATHER SERVICE OMAHA NE
500 PM CDT TUE JUL 26 2016

NOTES: SATELLITE DATA IS BEING USED TO AUGMENT CLOUD COVER ABOVE
       12000 FEET.
       "FAIR" INDICATES FEW OR NO CLOUDS BELOW 12,000 FEET WITH NO
       SIGNIFICANT WEATHER AND/OR OBSTRUCTIONS TO VISIBILITY.

  * THESE STATIONS DO NOT REPORT WEATHER SUCH AS RAIN...SNOW OR FOG.

NEZ001>004-019>022-054>056-262300-
NEBRASKA PANHANDLE

CITY           SKY/WX    TMP DP  RH WIND       PRES   REMARKS
SCOTTSBLUFF    CLOUDY    93  54  26 S9        30.00S HX  91
ALLIANCE       CLOUDY    93  58  30 S13       29.98F HX  92
CHADRON        SUNNY     96  58  27 VRB6      29.95F HX  95
KIMBALL        CLOUDY    87  41  20 NW15G41   30.11R
SIDNEY         CLOUDY    93  51  23 SW9       30.03F HX  90
$$

NEZ057>060-069>072-079>082-262300-
SOUTHWEST NEBRASKA

CITY           SKY/WX    TMP DP  RH WIND       PRES   REMARKS
NORTH PLATTE   SUNNY     88  68  51 SE13      29.99F HX  91
IMPERIAL       SUNNY     92  61  35 S17       29.99F HX  92
LEXINGTON      SUNNY     86  65  48 SE14      30.01F
MCCOOK         MOSUNNY   92  64  39 SE14      29.98F HX  93
OGALLALA       SUNNY     94  58  30 S14       29.98F HX  93
$$

NEZ005>010-023>029-035>040-094-262300-
NORTH CENTRAL NEBRASKA

CITY           SKY/WX    TMP DP  RH WIND       PRES   REMARKS
VALENTINE      SUNNY     94  59  31 S12       29.96S HX  93
AINSWORTH      SUNNY     90  64  42 S14       29.98S HX  91
BROKEN BOW     SUNNY     85  66  53 S16G25    29.99F
O`NEILL        SUNNY     89  57  33 S10G16    30.00S
ORD            SUNNY     86  63  45 S17       29.97F
THEDFORD       CLOUDY    91  67  45 S18G29    29.99F HX  93
$$

NEZ041-046>049-061>064-073>077-083>087-262300-
SOUTH CENTRAL NEBRASKA

CITY           SKY/WX    TMP DP  RH WIND       PRES   REMARKS
GRAND ISLAND   SUNNY     88  64  44 SE14      30.01F
AURORA         SUNNY     86  64  48 S12       30.01F
HASTINGS       SUNNY     88  63  43 SE13      30.02F
HEBRON         SUNNY     88  63  43 S9        30.00F
HOLDREGE       MOSUNNY   87  63  44 S9        30.02S
KEARNEY *      SUNNY     88  64  45 S10       30.02F
YORK           SUNNY     86  66  51 SE7       30.01F
$$

NEZ011>018-030>034-042>045-262300-
NORTHEAST NEBRASKA

CITY           SKY/WX    TMP DP  RH WIND       PRES   REMARKS
NORFOLK        SUNNY     86  64  47 SE10      30.01F
ALBION         SUNNY     84  66  53 SE10      30.01F
BLAIR          SUNNY     85  67  55 E7        30.02F
FREMONT        SUNNY     85  65  49 SE8       30.02F
TEKAMAH        SUNNY     87  62  43 SE7       30.01F
WAYNE          SUNNY     84  69  60 SE9       30.02F
$$

NEZ050>053-065>068-078-088>093-262300-
SOUTHEAST NEBRASKA

CITY           SKY/WX    TMP DP  RH WIND       PRES   REMARKS
LINCOLN        SUNNY     88  64  44 SE10      30.01F
OMAHA EPPLEY   MOSUNNY   86  64  47 E8        30.01F
BEATRICE       SUNNY     89  63  42 SE7       30.00S HX  90
FALLS CITY     SUNNY     87  69  54 E7        29.99F HX  91
NEBRASKA CITY  SUNNY     84  62  47 SE3       30.01F
PLATTSMOUTH    SUNNY     85  65  51 E7        30.02F
$$

NEZ044-045-051>053-067-262300-
OMAHA AREA

CITY           SKY/WX    TMP DP  RH WIND       PRES   REMARKS
OMAHA EPPLEY   MOSUNNY   86  64  47 E8        30.01F
BLAIR          SUNNY     85  67  55 E7        30.02F
FREMONT        SUNNY     85  65  49 SE8       30.02F
MILLARD        SUNNY     86  63  46 SE7       30.01F
OFFUTT AFB     SUNNY     86  66  51 VRB3      30.01F
PLATTSMOUTH    SUNNY     85  65  51 E7        30.02F
WAHOO          FAIR      85  66  53 SE6       30.01F
$$




USA.gov is the U.S. government's official web portal to all federal, state and local government web resources and services.